timestamp,surface_pressure_avg,surface_temp_avg,battery_voltage,lat,long
2021-07-19 00:09:01+00:00,211.0981,15.0,13.21,47.84626,-54.09684
2021-07-19 00:19:01+00:00,210.4164,15.0,12.89,47.84626,-54.09684
2021-07-19 00:29:01+00:00,210.9597,15.09,12.89,47.84626,-54.09684
2021-07-19 00:39:01+00:00,214.1031,15.1,12.89,47.84626,-54.09684
2021-07-19 00:49:01+00:00,216.8548,15.14,12.89,47.84626,-54.09684
2021-07-19 00:59:01+00:00,217.7231,15.2,12.89,47.84626,-54.09684
2021-07-19 01:09:01+00:00,219.6864,15.23,12.89,47.84626,-54.09684
2021-07-19 01:19:01+00:00,220.8481,15.29,12.73,47.84626,-54.09684
2021-07-19 01:29:01+00:00,220.5514,15.3,12.73,47.84626,-54.09684
2021-07-19 01:39:01+00:00,219.3031,15.3,12.73,47.84626,-54.09684
2021-07-19 01:49:01+00:00,219.2931,15.3,12.73,47.84626,-54.09684
2021-07-19 01:59:01+00:00,222.1165,15.32,12.73,47.84626,-54.09684
2021-07-19 02:09:01+00:00,223.4915,15.35,12.73,47.84626,-54.09684
2021-07-19 02:19:00+00:00,223.2547,15.36,12.73,47.84626,-54.09684
2021-07-19 02:29:00+00:00,225.1448,15.39,12.73,47.84626,-54.09684
2021-07-19 02:39:00+00:00,228.8464,15.39,12.73,47.84626,-54.09684
2021-07-19 02:49:00+00:00,229.6648,15.37,12.73,47.84626,-54.09684
2021-07-19 02:59:00+00:00,230.5965,15.3,12.73,47.84626,-54.09684
2021-07-19 03:09:00+00:00,234.2481,15.3,12.73,47.84626,-54.09684
2021-07-19 03:19:00+00:00,238.8881,15.3,12.73,47.84626,-54.09684
2021-07-19 03:29:00+00:00,240.9081,15.37,12.73,47.84626,-54.09684
2021-07-19 03:39:00+00:00,243.8914,15.4,12.73,47.84626,-54.09684
2021-07-19 03:49:00+00:00,249.7998,15.47,12.73,47.84626,-54.09684
2021-07-19 03:59:00+00:00,258.3464,15.46,12.73,47.84626,-54.09684
2021-07-19 04:09:00+00:00,265.308,15.4,12.73,47.84626,-54.09684
2021-07-19 04:19:01+00:00,270.6314,15.4,12.73,47.84626,-54.09684
2021-07-19 04:29:01+00:00,275.3164,15.4,12.73,47.84626,-54.09684
2021-07-19 04:39:01+00:00,284.3248,15.4,12.73,47.84626,-54.09684
2021-07-19 04:49:01+00:00,291.943,15.4,12.73,47.84626,-54.09684
2021-07-19 04:59:01+00:00,296.3431,15.4,12.73,47.84626,-54.09684
2021-07-19 05:09:01+00:00,297.0797,15.4,12.73,47.84626,-54.09684
2021-07-19 05:19:01+00:00,302.8497,15.4,12.73,47.84626,-54.09684
2021-07-19 05:29:01+00:00,306.8864,15.39,12.73,47.84626,-54.09684
2021-07-19 05:39:01+00:00,307.9431,15.39,12.73,47.84626,-54.09684
2021-07-19 05:49:01+00:00,308.7729,15.39,12.73,47.84626,-54.09684
2021-07-19 05:59:01+00:00,314.9413,15.4,12.73,47.84626,-54.09684
2021-07-19 06:09:01+00:00,317.8514,15.39,12.73,47.84626,-54.09684
2021-07-19 06:19:01+00:00,317.343,15.39,12.73,47.84626,-54.09684
2021-07-19 06:29:01+00:00,319.2213,15.39,12.73,47.84626,-54.09684
2021-07-19 06:39:01+00:00,322.2063,15.39,12.73,47.84626,-54.09684
2021-07-19 06:49:01+00:00,323.473,15.39,12.73,47.84626,-54.09684
2021-07-19 06:59:01+00:00,320.6197,15.4,12.73,47.84626,-54.09684
2021-07-19 07:09:01+00:00,319.0797,15.46,12.73,47.84626,-54.09684
2021-07-19 07:19:00+00:00,320.3813,15.5,12.65,47.84626,-54.09684
2021-07-19 07:29:00+00:00,322.8063,15.6,12.65,47.84626,-54.09684
2021-07-19 07:39:00+00:00,323.6796,15.64,12.65,47.84626,-54.09684
2021-07-19 07:49:00+00:00,324.4396,15.69,12.65,47.84626,-54.09684
2021-07-19 07:59:00+00:00,323.5247,15.63,12.65,47.84626,-54.09684
2021-07-19 08:09:00+00:00,320.2563,15.5,12.65,47.84626,-54.09684
2021-07-19 08:19:01+00:00,315.8446,15.49,12.65,47.84626,-54.09684
2021-07-19 08:29:01+00:00,311.098,15.4,12.65,47.84626,-54.09684
2021-07-19 08:39:01+00:00,306.4846,15.41,12.65,47.84626,-54.09684
2021-07-19 08:49:01+00:00,298.518,15.49,12.65,47.84626,-54.09684
2021-07-19 08:59:01+00:00,293.9597,15.65,12.65,47.84626,-54.09684
2021-07-19 09:09:01+00:00,289.9948,15.7,12.65,47.84626,-54.09684
2021-07-19 09:19:01+00:00,283.8931,15.7,12.81,47.84626,-54.09684
2021-07-19 09:29:01+00:00,274.0781,15.7,12.81,47.84626,-54.09684
2021-07-19 09:39:01+00:00,269.2764,15.6,12.81,47.84626,-54.09684
2021-07-19 09:49:01+00:00,262.0747,15.57,12.81,47.84626,-54.09684
2021-07-19 09:59:01+00:00,252.3831,15.61,12.81,47.84626,-54.09684
2021-07-19 10:09:01+00:00,246.1931,15.68,12.81,47.84626,-54.09684
2021-07-19 10:19:01+00:00,241.7848,15.7,13.21,47.84626,-54.09684
2021-07-19 10:29:01+00:00,231.6981,15.75,13.21,47.84626,-54.09684
2021-07-19 10:39:01+00:00,222.6731,15.78,13.21,47.84626,-54.09684
2021-07-19 10:49:01+00:00,220.1814,15.78,13.21,47.84626,-54.09684
2021-07-19 10:59:01+00:00,217.3781,15.78,13.21,47.84626,-54.09684
2021-07-19 11:09:01+00:00,210.5048,15.77,13.21,47.84626,-54.09684
2021-07-19 11:19:01+00:00,206.1231,15.8,14.0,47.84626,-54.09684
2021-07-19 11:29:01+00:00,207.2181,15.8,14.0,47.84626,-54.09684
2021-07-19 11:39:01+00:00,207.4515,15.8,14.0,47.84626,-54.09684
2021-07-19 11:49:01+00:00,203.1765,15.8,14.0,47.84626,-54.09684
2021-07-19 11:59:01+00:00,200.2581,15.8,14.0,47.84626,-54.09684
2021-07-19 12:09:01+00:00,201.0698,15.85,14.0,47.84626,-54.09684
2021-07-19 12:19:01+00:00,199.6048,15.9,14.32,47.84626,-54.09684
2021-07-19 12:29:01+00:00,198.3065,15.8,14.32,47.84626,-54.09684
2021-07-19 12:39:01+00:00,199.5231,15.6,14.32,47.84626,-54.09684
2021-07-19 12:49:01+00:00,201.1514,15.7,14.32,47.84626,-54.09684
2021-07-19 12:59:01+00:00,201.9031,15.6,14.32,47.84626,-54.09684
2021-07-19 13:09:01+00:00,202.8698,15.38,14.32,47.84626,-54.09684
2021-07-19 13:19:01+00:00,205.3231,15.29,14.32,47.84626,-54.09684
2021-07-19 13:29:01+00:00,206.2397,15.22,14.32,47.84626,-54.09684
2021-07-19 13:39:01+00:00,205.7614,15.27,14.32,47.84626,-54.09684
2021-07-19 13:49:01+00:00,208.9565,15.26,14.32,47.84626,-54.09684
2021-07-19 13:59:01+00:00,211.673,15.27,14.32,47.84626,-54.09684
2021-07-19 14:09:01+00:00,212.2897,15.29,14.32,47.84626,-54.09684
2021-07-19 14:19:00+00:00,214.9348,15.3,14.24,47.84626,-54.09684
2021-07-19 14:29:00+00:00,217.1198,15.3,14.24,47.84626,-54.09684
2021-07-19 14:39:00+00:00,217.5698,15.31,14.24,47.84626,-54.09684
2021-07-19 14:49:00+00:00,220.0631,15.35,14.24,47.84626,-54.09684
2021-07-19 14:59:00+00:00,225.6631,15.35,14.24,47.84626,-54.09684
2021-07-19 15:09:00+00:00,231.7097,15.35,14.24,47.84626,-54.09684
2021-07-19 15:19:01+00:00,234.7898,15.36,14.24,47.84626,-54.09684
2021-07-19 15:29:01+00:00,236.8515,15.39,14.24,47.84626,-54.09684
2021-07-19 15:39:01+00:00,242.4281,15.4,14.24,47.84626,-54.09684
2021-07-19 15:49:01+00:00,248.9981,15.4,14.24,47.84626,-54.09684
2021-07-19 15:59:01+00:00,253.3531,15.4,14.24,47.84626,-54.09684
2021-07-19 16:09:01+00:00,256.7581,15.48,14.24,47.84626,-54.09684
2021-07-19 16:19:00+00:00,263.7448,15.48,14.08,47.84626,-54.09684
2021-07-19 16:29:00+00:00,273.803,15.47,14.08,47.84626,-54.09684
2021-07-19 16:39:00+00:00,280.7848,15.4,14.08,47.84626,-54.09684
2021-07-19 16:49:00+00:00,286.2797,15.3,14.08,47.84626,-54.09684
2021-07-19 16:59:00+00:00,294.998,15.28,14.08,47.84626,-54.09684
2021-07-19 17:09:00+00:00,302.3796,15.2,14.08,47.84626,-54.09684
2021-07-19 17:19:01+00:00,306.0231,15.0,14.0,47.84626,-54.09684
2021-07-19 17:29:01+00:00,312.628,14.88,14.0,47.84626,-54.09684
2021-07-19 17:39:01+00:00,322.1596,14.8,14.0,47.84626,-54.09684
2021-07-19 17:49:01+00:00,323.438,14.8,14.0,47.84626,-54.09684
2021-07-19 17:59:01+00:00,322.5714,14.88,14.0,47.84626,-54.09684
2021-07-19 18:09:01+00:00,328.0247,14.8,14.0,47.84626,-54.09684
2021-07-19 18:19:01+00:00,333.8198,14.8,13.84,47.84626,-54.09684
2021-07-19 18:29:01+00:00,334.6512,14.8,13.84,47.84626,-54.09684
2021-07-19 18:39:01+00:00,336.9846,14.8,13.84,47.84626,-54.09684
2021-07-19 18:49:01+00:00,344.1163,14.8,13.84,47.84626,-54.09684
2021-07-19 18:59:01+00:00,345.2197,14.83,13.84,47.84626,-54.09684
2021-07-19 19:09:01+00:00,343.2462,14.9,13.84,47.84626,-54.09684
2021-07-19 19:19:01+00:00,347.0729,14.9,13.76,47.84626,-54.09684
2021-07-19 19:29:01+00:00,350.0197,14.9,13.76,47.84626,-54.09684
2021-07-19 19:39:01+00:00,344.6713,14.96,13.76,47.84626,-54.09684
2021-07-19 19:49:01+00:00,342.5363,15.0,13.76,47.84626,-54.09684
2021-07-19 19:59:01+00:00,341.7712,15.0,13.76,47.84626,-54.09684
2021-07-19 20:09:01+00:00,338.7279,15.0,13.76,47.84626,-54.09684
2021-07-19 20:19:01+00:00,337.0413,15.0,13.68,47.84626,-54.09684
2021-07-19 20:29:01+00:00,339.0979,15.0,13.68,47.84626,-54.09684
2021-07-19 20:39:01+00:00,339.4163,15.0,13.68,47.84626,-54.09684
2021-07-19 20:49:01+00:00,333.8813,15.05,13.68,47.84626,-54.09684
2021-07-19 20:59:01+00:00,329.903,15.19,13.68,47.84626,-54.09684
2021-07-19 21:09:01+00:00,325.048,15.1,13.68,47.84626,-54.09684
2021-07-19 21:19:01+00:00,317.0446,15.06,13.53,47.84626,-54.09684
2021-07-19 21:29:01+00:00,311.1747,15.08,13.53,47.84626,-54.09684
2021-07-19 21:39:01+00:00,304.7531,15.1,13.53,47.84626,-54.09684
2021-07-19 21:49:01+00:00,299.0064,15.1,13.53,47.84626,-54.09684
2021-07-19 21:59:01+00:00,290.3081,15.08,13.53,47.84626,-54.09684
2021-07-19 22:09:01+00:00,282.4597,15.1,13.53,47.84626,-54.09684
2021-07-19 22:19:01+00:00,275.1064,15.1,13.37,47.84626,-54.09684
2021-07-19 22:29:01+00:00,271.6364,15.19,13.37,47.84626,-54.09684
2021-07-19 22:39:01+00:00,268.2747,15.2,13.37,47.84626,-54.09684
2021-07-19 22:49:01+00:00,262.3864,15.23,13.37,47.84626,-54.09684
2021-07-19 22:59:01+00:00,254.8664,15.36,13.37,47.84626,-54.09684
2021-07-19 23:09:01+00:00,247.5631,15.3,13.37,47.84626,-54.09684
2021-07-19 23:19:01+00:00,240.6164,15.33,12.97,47.84626,-54.09684
2021-07-19 23:29:01+00:00,233.6964,15.4,12.97,47.84626,-54.09684
2021-07-19 23:39:01+00:00,230.9898,15.39,12.97,47.84626,-54.09684
2021-07-19 23:49:01+00:00,225.7764,15.35,12.97,47.84626,-54.09684
2021-07-19 23:59:01+00:00,221.5948,15.4,12.97,47.84626,-54.09684
